When you browse on this site, cookies collect data to enhance your experience and personalize the content and advertising you see.
Visit our Privacy Policy to learn more. By continuing to use the site, you agree to this use of cookies and data.
  • In Deutschland
  • Länderverzeichnis
  • Für 7 Tage
  • Wassertemperatur
  • Satellitenkarten
  • Wetterkarte
  • Widgets
  • user-avatar
    Anmelden

    Stündliche Wetter Nayarit

    Heute, 18 Januar, Freitag

    Zeit Temperatur Niederschläge Wind Luftdruck Luftfeuchtigkeit
    00:00 +22°C° 0 mm 1 m/S 744 mmHg 56%
    01:00 +22°C° 0 mm 1 m/S 744 mmHg 56%
    02:00 +22°C° 0 mm 1 m/S 743 mmHg 56%
    03:00 +21°C° 0 mm 1 m/S 743 mmHg 57%
    04:00 +21°C° 0 mm 1 m/S 743 mmHg 59%
    05:00 +21°C° 0 mm 1 m/S 743 mmHg 58%
    06:00 +22°C° 0 mm 1 m/S 743 mmHg 56%
    07:00 +23°C° 0 mm 1 m/S 743 mmHg 54%
    08:00 +24°C° 0 mm 1 m/S 743 mmHg 52%
    09:00 +28°C° 0 mm 1 m/S 743 mmHg 44%
    10:00 +32°C° 0 mm 1 m/S 743 mmHg 35%
    11:00 +35°C° 0 mm 1 m/S 743 mmHg 27%
    12:00 +35°C° 0 mm 1 m/S 742 mmHg 26%
    13:00 +36°C° 0 mm 2 m/S 742 mmHg 26%
    14:00 +36°C° 0 mm 2 m/S 741 mmHg 25%
    15:00 +34°C° 0 mm 2 m/S 741 mmHg 31%
    16:00 +32°C° 0 mm 2 m/S 741 mmHg 36%
    17:00 +30°C° 0 mm 2 m/S 741 mmHg 41%
    18:00 +27°C° 0 mm 1 m/S 741 mmHg 53%
    19:00 +25°C° 0 mm 1 m/S 741 mmHg 65%
    20:00 +20°C° 0 mm 0 m/S 742 mmHg 77%
    21:00 +20°C° 0 mm 0 m/S 742 mmHg 77%
    22:00 +22°C° 0 mm 1 m/S 742 mmHg 77%
    23:00 +22°C° 0 mm 1 m/S 742 mmHg 76%

    Morgen, 19 Januar, Samstag

    Zeit Temperatur Niederschläge Wind Luftdruck Luftfeuchtigkeit
    00:00 +22°C° 0 mm 1 m/S 742 mmHg 75%
    01:00 +22°C° 0 mm 1 m/S 742 mmHg 73%
    02:00 +21°C° 0 mm 1 m/S 742 mmHg 71%
    03:00 +21°C° 0 mm 1 m/S 742 mmHg 69%
    04:00 +21°C° 0 mm 1 m/S 742 mmHg 66%
    05:00 +21°C° 0 mm 1 m/S 742 mmHg 64%
    06:00 +22°C° 0 mm 1 m/S 742 mmHg 60%
    07:00 +23°C° 0 mm 1 m/S 743 mmHg 56%
    08:00 +24°C° 0 mm 1 m/S 743 mmHg 51%
    09:00 +28°C° 0 mm 1 m/S 743 mmHg 42%
    10:00 +32°C° 0 mm 1 m/S 743 mmHg 32%
    11:00 +36°C° 0 mm 1 m/S 743 mmHg 22%
    12:00 +37°C° 0 mm 1 m/S 742 mmHg 21%
    13:00 +39°C° 0 mm 1 m/S 741 mmHg 19%
    14:00 +40°C° 0 mm 1 m/S 740 mmHg 18%
    15:00 +37°C° 0 mm 1 m/S 740 mmHg 23%
    16:00 +35°C° 0 mm 2 m/S 740 mmHg 28%
    17:00 +32°C° 0 mm 2 m/S 740 mmHg 33%
    18:00 +29°C° 0 mm 1 m/S 741 mmHg 43%
    19:00 +26°C° 0 mm 1 m/S 741 mmHg 53%
    20:00 +21°C° 0 mm 0 m/S 742 mmHg 63%
    21:00 +23°C° 0 mm 1 m/S 742 mmHg 61%
    22:00 +23°C° 0 mm 1 m/S 743 mmHg 58%
    23:00 +23°C° 0 mm 1 m/S 743 mmHg 56%

    übermorgen, 20 Januar, Sonntag

    Zeit Temperatur Niederschläge Wind Luftdruck Luftfeuchtigkeit
    00:00 +23°C° 0 mm 1 m/S 743 mmHg 53%
    01:00 +23°C° 0 mm 1 m/S 743 mmHg 50%
    02:00 +22°C° 0 mm 1 m/S 743 mmHg 47%
    03:00 +21°C° 0 mm 2 m/S 743 mmHg 43%
    04:00 +21°C° 0 mm 2 m/S 743 mmHg 40%
    05:00 +21°C° 0 mm 2 m/S 743 mmHg 37%
    06:00 +23°C° 0 mm 2 m/S 744 mmHg 34%
    07:00 +24°C° 0 mm 2 m/S 744 mmHg 31%
    08:00 +24°C° 0 mm 2 m/S 745 mmHg 29%
    09:00 +28°C° 0 mm 2 m/S 745 mmHg 24%
    10:00 +31°C° 0 mm 2 m/S 744 mmHg 20%
    11:00 +36°C° 0 mm 2 m/S 744 mmHg 15%
    12:00 +37°C° 0 mm 2 m/S 743 mmHg 15%
    13:00 +39°C° 0 mm 1 m/S 742 mmHg 15%
    14:00 +40°C° 0 mm 1 m/S 742 mmHg 14%
    15:00 +37°C° 0 mm 1 m/S 742 mmHg 19%
    16:00 +35°C° 0 mm 2 m/S 741 mmHg 24%
    17:00 +32°C° 0 mm 2 m/S 741 mmHg 29%
    18:00 +29°C° 0 mm 1 m/S 742 mmHg 40%
    19:00 +26°C° 0 mm 1 m/S 743 mmHg 51%
    20:00 +21°C° 0 mm 0 m/S 743 mmHg 62%
    21:00 +21°C° 0 mm 0 m/S 743 mmHg 62%
    22:00 +22°C° 0 mm 1 m/S 744 mmHg 62%
    23:00 +22°C° 0 mm 1 m/S 744 mmHg 62%

    21 Januar, Montag

    Zeit Temperatur Niederschläge Wind Luftdruck Luftfeuchtigkeit
    00:00 +22°C° 0 mm 1 m/S 744 mmHg 60%
    01:00 +22°C° 0 mm 1 m/S 743 mmHg 58%
    02:00 +22°C° 0 mm 1 m/S 743 mmHg 56%
    03:00 +22°C° 0 mm 1 m/S 743 mmHg 54%
    04:00 +21°C° 0 mm 2 m/S 743 mmHg 51%
    05:00 +21°C° 0 mm 2 m/S 743 mmHg 48%
    06:00 +23°C° 0 mm 2 m/S 743 mmHg 46%
    07:00 +24°C° 0 mm 2 m/S 744 mmHg 43%
    08:00 +25°C° 0 mm 2 m/S 744 mmHg 40%
    09:00 +29°C° 0 mm 1 m/S 744 mmHg 33%
    10:00 +33°C° 0 mm 1 m/S 744 mmHg 25%
    11:00 +35°C° 0 mm 0 m/S 744 mmHg 18%
    12:00 +37°C° 0 mm 1 m/S 743 mmHg 18%
    13:00 +37°C° 0 mm 1 m/S 742 mmHg 18%
    14:00 +38°C° 0 mm 2 m/S 741 mmHg 18%
    15:00 +36°C° 0 mm 2 m/S 741 mmHg 22%
    16:00 +34°C° 0 mm 2 m/S 740 mmHg 27%
    17:00 +31°C° 0 mm 2 m/S 740 mmHg 31%
    18:00 +28°C° 0 mm 1 m/S 741 mmHg 41%
    19:00 +26°C° 0 mm 1 m/S 741 mmHg 50%
    20:00 +21°C° 0 mm 0 m/S 742 mmHg 60%
    21:00 +21°C° 0 mm 0 m/S 742 mmHg 60%
    22:00 +23°C° 0 mm 1 m/S 742 mmHg 59%
    23:00 +23°C° 0 mm 1 m/S 742 mmHg 59%

    22 Januar, Dienstag

    Zeit Temperatur Niederschläge Wind Luftdruck Luftfeuchtigkeit
    00:00 +23°C° 0 mm 1 m/S 742 mmHg 57%
    01:00 +23°C° 0 mm 1 m/S 742 mmHg 55%
    02:00 +22°C° 0 mm 1 m/S 741 mmHg 54%
    03:00 +22°C° 0 mm 1 m/S 741 mmHg 52%
    04:00 +22°C° 0 mm 1 m/S 741 mmHg 51%
    05:00 +22°C° 0 mm 1 m/S 741 mmHg 49%
    06:00 +23°C° 0 mm 1 m/S 742 mmHg 47%
    07:00 +24°C° 0 mm 1 m/S 742 mmHg 45%
    08:00 +25°C° 0 mm 1 m/S 743 mmHg 43%
    09:00 +28°C° 0 mm 1 m/S 742 mmHg 37%
    10:00 +31°C° 0 mm 1 m/S 742 mmHg 31%
    11:00 +35°C° 0 mm 1 m/S 742 mmHg 25%
    12:00 +34°C° 0 mm 1 m/S 741 mmHg 26%
    13:00 +35°C° 0 mm 2 m/S 741 mmHg 27%
    14:00 +35°C° 0 mm 3 m/S 740 mmHg 28%
    15:00 +32°C° 0 mm 2 m/S 740 mmHg 34%
    16:00 +31°C° 0 mm 2 m/S 740 mmHg 40%
    17:00 +29°C° 0 mm 2 m/S 740 mmHg 47%
    18:00 +27°C° 0 mm 2 m/S 741 mmHg 59%
    19:00 +24°C° 0 mm 1 m/S 742 mmHg 71%
    20:00 +20°C° 0 mm 0 m/S 742 mmHg 84%
    21:00 +20°C° 0 mm 0 m/S 742 mmHg 85%
    22:00 +19°C° 0 mm 0 m/S 742 mmHg 87%
    23:00 +19°C° 0 mm 0 m/S 742 mmHg 89%

    23 Januar, Mittwoch

    Zeit Temperatur Niederschläge Wind Luftdruck Luftfeuchtigkeit
    00:00 +21°C° 0 mm 1 m/S 742 mmHg 89%
    01:00 +20°C° 0 mm 1 m/S 742 mmHg 89%
    02:00 +20°C° 0 mm 1 m/S 742 mmHg 89%
    03:00 +20°C° 0 mm 1 m/S 742 mmHg 89%
    04:00 +20°C° 0 mm 1 m/S 741 mmHg 89%
    05:00 +19°C° 0 mm 1 m/S 741 mmHg 90%
    06:00 +20°C° 0 mm 1 m/S 742 mmHg 84%
    07:00 +20°C° 0 mm 0 m/S 742 mmHg 78%
    08:00 +21°C° 0 mm 0 m/S 742 mmHg 72%
    09:00 +25°C° 0 mm 1 m/S 742 mmHg 63%
    10:00 +27°C° 0 mm 1 m/S 742 mmHg 55%
    11:00 +29°C° 0 mm 2 m/S 742 mmHg 46%
    12:00 +29°C° 0 mm 2 m/S 741 mmHg 44%
    13:00 +29°C° 0 mm 3 m/S 740 mmHg 43%
    14:00 +29°C° 0 mm 3 m/S 739 mmHg 42%
    15:00 +28°C° 0 mm 3 m/S 739 mmHg 44%
    16:00 +27°C° 0 mm 3 m/S 740 mmHg 46%
    17:00 +26°C° 0 mm 2 m/S 740 mmHg 49%
    18:00 +23°C° 0 mm 2 m/S 740 mmHg 59%
    19:00 +20°C° 0 mm 1 m/S 741 mmHg 69%
    20:00 +16°C° 0 mm 0 m/S 741 mmHg 79%
    21:00 +15°C° 0 mm 0 m/S 742 mmHg 80%
    22:00 +16°C° 0 mm 1 m/S 742 mmHg 81%
    23:00 +16°C° 0 mm 1 m/S 742 mmHg 82%
    Mehr zeigen